Regional Weather Roundup
Issued by NWS Newport/Morehead, NC

Current Version | Previous Version | Graphics & Text | Print | Product List | Glossary Off
Versions: 1 2 3 4 5 6 7 8 9 10 11 12 13 14 15 16 17 18 19 20 21 22 23 24 25 26 27 28 29 30 31 32 33 34 35 36 37 38 39 40 41 42 43 44 45 46 47 48 49 50

000
ASUS42 KMHX 212214
RWRMHX
WEATHER ROUNDUP FOR EASTERN NORTH CAROLINA
NATIONAL WEATHER SERVICE NEWPORT/MOREHEAD CITY NC
600 PM EDT SAT OCT 21 2017

NOTE: "FAIR" INDICATES FEW OR NO CLOUDS BELOW 12,000 FEET
WITH NO SIGNIFICANT WEATHER AND/OR OBSTRUCTIONS TO VISIBILITY

NCZ015>017-031-032-045>047-102-103-212300-
NORTH COAST

CITY           SKY/WX    TMP DP  RH WIND       PRES   REMARKS
EDENTON        CLEAR     71  58  65 CALM      30.33R
ELIZABETH CITY CLOUDY    69  56  62 E6        30.33R
KITTY HAWK     CLEAR     68  55  64 CALM      30.32R
MANTEO         CLEAR    N/A N/A N/A E3        30.34R

$$

NCZ045>047-081-094-103-104-212300-
CENTRAL COAST

CITY           SKY/WX    TMP DP  RH WIND       PRES   REMARKS
FRISCO         CLEAR     69  60  73 NE3       30.32S

$$

NCZ095-097-098-100-101-212300-
SOUTHERN COAST

CITY           SKY/WX    TMP DP  RH WIND       PRES   REMARKS
BEAUFORT       CLEAR     71  59  65 E5        30.31S
CEDAR ISLAND   NOT AVBL
JACKSONVILLE   CLOUDY    73  59  61 S3        30.31R
PINEY ISLAND     N/A    N/A N/A N/A E8        30.32R
WILMINGTON     CLOUDY    73  61  65 E7        30.31R


$$

NCZ011>013-027>030-043-044-078>080-089-090>093-098-212300-
COASTAL PLAIN

CITY           SKY/WX    TMP DP  RH WIND       PRES   REMARKS
AHOSKIE        CLEAR     70  58  66 CALM      30.32R
CLINTON        CLOUDY    75  56  51 CALM      30.31R
ELIZABETHTOWN  NOT AVBL
GOLDSBORO      CLOUDY    72  55  54 E3        30.29R
GREENVILLE     CLOUDY    75  55  50 E3        30.32R
HAVELOCK       CLEAR     71  58  63 E3        30.33R
KENANSVILLE    CLOUDY    73  55  53 CALM      30.31R
KINSTON        CLEAR     75  54  46 SE3       30.32R
NEW BERN       CLEAR     71  58  63 SE3       30.32R
RICHLANDS      CLOUDY    72  57  59 SE5       30.31R
ROCKY MOUNT    PTCLDY    69  62  78 CALM      30.31R
WASHINGTON     CLEAR     73  56  55 CALM      30.32R
WHITEVILLE     CLEAR     72  58  62 CALM      30.29R

$$

AMZ130-135-150-152-154-156-158-170-250-252-270-ANZ085-086-088-633-658-670-212300-
MARINE OBSERVATIONS

STATION/POSITION TIME  TEMP    WIND        PRES    WAVE   SWELL
                       AIR SEA DIR/SP/G            HT/PER HT/PER
                 (UTC) (F)     (DEG/KT/KT) (MB)    (FT/S) (FT/S)
CHESAPEAKE LIGHT NOT AVBL
64 E VA BEACH    2150   68 70   40/  6/  6 1027.6    2/ 9   2/ 9
DUCK             2136   71 70  100/  5/  6 1026.7
2 E DUCK         2130      71                N/A     2/ 8
OREGON INLET     2148           50/  4/  6 1027.0
13E OREGON INLT  2148      72                N/A     3/ 8   2/ 8
HATTERAS CG      2136   71 72   60/  5/  8 1026.6
DIAMOND BUOY     2150   73 81   10/  8/ 10 1026.3    3/ 8   3/ 8
CAPE LOOKOUT     2200   72      50/ 10/ 11 1026.2
BEAUFORT LAB     2136   72 72   90/  7/  8 1026.6
30 SE NEW RVR IN 2108   74      60/ 10/ 14 1025.9
30 SE NEW RVR IN NOT AVBL
27 SE WRIGHTSVLE 2108   74 76   90/ 10/ 16 1026.0
5 SE WRIGHTSVLE  2108   74 74  100/ 12/ 16 1025.9
225 S CAPE HAT   2150   77 80   80/ 12/ 14 1024.3    4/ 8   3/ 8
41 SE CHARLESTON 2150   77 80   50/ 16/ 19 1023.9    4/ 9   2/ 9

$$




USA.gov is the U.S. government's official web portal to all federal, state and local government web resources and services.